Other Public Products
Issued by NWS Charleston, SC

Current Version | Previous Version | Graphics & Text | Print | Product List | Glossary On
Versions: 1 2 3 4 5 6 7 8 9 10 11 12 13 14 15 16 17 18 19 20 21 22 23 24 25 26 27 28 29 30 31 32 33 34 35 36 37 38 39 40 41 42 43 44 45 46 47 48 49 50
000
FPUS82 KCHS 190527
OPUCHS

TEST...KCHS/KSAV Gateway Observations...TEST
National Weather Service Charleston SC
1200 AM EST SUN NOV 19 2017

NOTE: "fair" indicates few or no clouds below 12,000 feet with no
significant weather and/or obstructions to visibility.

SCZ050-WAZ558-NCZ071-TXZ119-213-PAZ071-DCZ001-FLZ074-172-MI076-
NYZ176-178-MAZ016-IL014-TNZ027-NJZ106-GAZ044-MD014-190600-

...Gateway Observations for Charleston International...

CITY           SKY/WX    TMP DP  RH WIND       PRES   REMARKS
Chas Airport   CLEAR     64  59  83 SW13      29.80F
Seattle        CLOUDY    45  38  76 SE8       30.13F
Charlotte      MOCLDY    65  52  62 S14       29.58F
Dallas DFW     PTCLDY    50  36  58 NW7       30.28R
Dallas Love    PTCLDY    50  36  58 NW3       30.30R
Philladelphia  CLOUDY    61  50  67 SW21G29   29.40F
Wash National  CLOUDY    63  51  65 S15G24    29.42F
Baltimore      CLOUDY    63  50  62 SW14G29   29.39F
Miami          CLEAR     72  66  81 CALM      29.96F
Detroit        CLOUDY    39  33  79 NW20G28   29.50R WCI  29
Newark         CLOUDY    53  49  86 S7        29.40F
Laguardia      MOCLDY    56  50  80 S7        29.40F
J F K          CLOUDY    56  54  93 S23       29.43F
Boston Logan   LGT RAIN  52  49  89 SW9       29.48F
Ft. Lauderdale PTCLDY    71  66  84 CALM      29.95F
Chicago O`Hare CLOUDY    38  29  70 NW13      29.82R WCI  30
Chicago Midway CLOUDY    39  29  67 NW14      29.83R WCI  31
Houston Bush   PTCLDY    59  43  55 N18G28    30.18R
Houston Hobby  CLEAR     61  43  51 N24G31    30.15R
Nashville      CLOUDY    45  37  73 NW12G21   29.98R
Atlanta        CLOUDY    56  53  90 NW26G38   29.77R

$$

GAZ044-118-TXZ119-213-NCZ071-DCZ001-MDZ014-506-PAZ021-071-NJZ106-
NYZ176-178-MAZ106-OHZ011-021-055-MIZ076-KYZ091-ILZ014-INZ047-
MNZ060-ONZ431-190600-

...Gateway Observations for Savannah International...

CITY           SKY/WX    TMP DP  RH WIND       PRES   REMARKS
Savannah Arpt  CLEAR     65  56  72 SW13G22   29.83S
Atlanta        CLOUDY    56  53  90 NW26G38   29.77R
Charlotte      MOCLDY    65  52  62 S14       29.58F
Dallas DFW     PTCLDY    50  36  58 NW7       30.28R
Houston Bush   PTCLDY    59  43  55 N18G28    30.18R
Wash National  CLOUDY    63  51  65 S15G24    29.42F
Wash Dulles    LGT RAIN  59  52  77 S18G28    29.40F
Baltimore      CLOUDY    63  50  62 SW14G29   29.39F
Philadelphia   CLOUDY    61  50  67 SW21G29   29.40F
Newark         CLOUDY    53  49  86 S7        29.40F
Laguardia      MOCLDY    56  50  80 S7        29.40F
J F K          CLOUDY    56  54  93 S23       29.43F
Boston         LGT RAIN  52  49  89 SW9       29.48F
Pittsburg      CLOUDY    46  43  89 NW31G44   29.22R
Akron          LGT RAIN  37  33  85 NW20G35   29.34R WCI  27
Cleveland      LGT RAIN  38  36  92 NW22G33   29.42R WCI  27
Cincinnati     LGT RAIN  41  41 100 W14       29.71R FOG
Columbus       LGT RAIN  37  37  97 NW16G25   29.60R WCI  28
Detroit        CLOUDY    39  33  79 NW20G28   29.50R WCI  29
Chicago O`Hare CLOUDY    38  29  70 NW13      29.82R WCI  30
Minneapolis    CLEAR     21  13  71 NW12G22   30.05R WCI   9
Indianapolis   CLOUDY    39  31  72 NW21      29.82R WCI  29
Toronto Canada HVY RAIN  36  34  93 NW24G35   29.18  WCI  24

$$




USA.gov is the U.S. government's official web portal to all federal, state and local government web resources and services.